Time,TemperatureF,DewpointF,PressureIn,WindDirection,WindDirectionDegrees,WindSpeedMPH,WindSpeedGustMPH,Humidity,HourlyPrecipIn,Conditions,Clouds,dailyrainin,SoftwareType,DateUTC
2013-04-01 00:03:00,38.0,30.0,29.75,NW,305,10.0,18.0,74,0.00,,,0.03,,2013-04-01 04:03:00,
2013-04-01 00:14:00,38.0,30.0,29.75,NW,305,10.0,18.0,74,0.00,,,0.03,,2013-04-01 04:14:00,
2013-04-01 00:23:00,38.0,31.0,29.75,NW,308,8.0,19.0,75,0.00,,,0.03,,2013-04-01 04:23:00,
2013-04-01 00:33:00,38.0,31.0,29.75,NW,309,9.0,16.0,77,0.00,,,0.03,,2013-04-01 04:33:00,
2013-04-01 00:43:00,38.0,31.0,29.75,NW,309,9.0,16.0,77,0.00,,,0.03,,2013-04-01 04:43:00,
2013-04-01 00:53:00,38.0,31.0,29.75,NW,305,10.0,17.0,77,0.00,,,0.03,,2013-04-01 04:53:00,
2013-04-01 01:03:00,37.0,29.0,29.75,NW,310,12.0,20.0,74,0.00,,,0.03,,2013-04-01 05:03:00,
2013-04-01 01:13:00,37.0,29.0,29.75,NW,310,12.0,20.0,74,0.00,,,0.03,,2013-04-01 05:13:00,
2013-04-01 01:22:00,37.0,29.0,29.75,NW,309,13.0,22.0,73,0.00,,,0.03,,2013-04-01 05:22:00,
2013-04-01 01:32:00,36.0,29.0,29.75,NW,312,11.0,18.0,75,0.00,,,0.03,,2013-04-01 05:32:00,
2013-04-01 01:43:00,36.0,29.0,29.75,NW,312,11.0,18.0,75,0.00,,,0.03,,2013-04-01 05:43:00,
2013-04-01 01:53:00,36.0,30.0,29.76,NW,312,10.0,17.0,80,0.00,,,0.03,,2013-04-01 05:53:00,
2013-04-01 02:02:00,35.0,31.0,29.77,NW,310,7.0,12.0,84,0.00,,,0.03,,2013-04-01 06:02:00,
2013-04-01 02:13:00,35.0,31.0,29.77,NW,310,7.0,12.0,84,0.00,,,0.03,,2013-04-01 06:13:00,
2013-04-01 02:23:00,35.0,31.0,29.78,NW,305,6.0,11.0,85,0.00,,,0.03,,2013-04-01 06:23:00,
2013-04-01 02:33:00,35.0,31.0,29.78,NW,307,6.0,10.0,84,0.00,,,0.03,,2013-04-01 06:33:00,
2013-04-01 02:43:00,35.0,31.0,29.78,NW,307,6.0,10.0,84,0.00,,,0.03,,2013-04-01 06:43:00,
2013-04-01 02:53:00,35.0,28.0,29.79,NNW,335,9.0,20.0,75,0.00,,,0.03,,2013-04-01 06:53:00,
2013-04-01 03:03:00,33.0,25.0,29.80,NNW,343,6.0,16.0,73,0.00,,,0.03,,2013-04-01 07:03:00,
2013-04-01 03:13:00,33.0,25.0,29.80,NNW,343,6.0,16.0,73,0.00,,,0.03,,2013-04-01 07:13:00,
2013-04-01 03:22:00,32.0,23.0,29.81,NNW,343,11.0,17.0,68,0.00,,,0.03,,2013-04-01 07:22:00,
2013-04-01 03:32:00,32.0,23.0,29.81,NNW,343,8.0,16.0,68,0.00,,,0.03,,2013-04-01 07:32:00,
2013-04-01 03:42:00,32.0,23.0,29.81,NNW,343,8.0,16.0,68,0.00,,,0.03,,2013-04-01 07:42:00,
2013-04-01 03:53:00,31.0,22.0,29.82,NNW,342,6.0,12.0,68,0.00,,,0.03,,2013-04-01 07:53:00,
2013-04-01 04:03:00,31.0,22.0,29.83,NNW,340,7.0,14.0,68,0.00,,,0.03,,2013-04-01 08:03:00,
2013-04-01 04:12:00,31.0,22.0,29.83,NNW,340,7.0,14.0,68,0.00,,,0.03,,2013-04-01 08:12:00,
2013-04-01 04:22:00,31.0,22.0,29.83,NNW,332,6.0,13.0,68,0.00,,,0.03,,2013-04-01 08:22:00,
2013-04-01 04:32:00,30.0,21.0,29.83,NNW,335,5.0,11.0,69,0.00,,,0.03,,2013-04-01 08:32:00,
2013-04-01 04:43:00,30.0,21.0,29.83,NNW,335,5.0,11.0,69,0.00,,,0.03,,2013-04-01 08:43:00,
2013-04-01 04:53:00,30.0,20.0,29.84,NNW,338,8.0,17.0,67,0.00,,,0.03,,2013-04-01 08:53:00,
2013-04-01 05:02:00,30.0,20.0,29.85,NNW,337,8.0,16.0,66,0.00,,,0.03,,2013-04-01 09:02:00,
2013-04-01 05:12:00,30.0,20.0,29.85,NNW,337,8.0,16.0,66,0.00,,,0.03,,2013-04-01 09:12:00,
2013-04-01 05:23:00,30.0,21.0,29.85,NNW,337,6.0,14.0,68,0.00,,,0.03,,2013-04-01 09:23:00,
2013-04-01 05:33:00,29.0,20.0,29.86,NNW,336,5.0,11.0,69,0.00,,,0.03,,2013-04-01 09:33:00,
2013-04-01 05:43:00,29.0,20.0,29.86,NNW,336,5.0,11.0,69,0.00,,,0.03,,2013-04-01 09:43:00,
2013-04-01 05:53:00,29.0,20.0,29.88,NNW,331,5.0,9.0,70,0.00,,,0.03,,2013-04-01 09:53:00,
2013-04-01 06:03:00,29.0,20.0,29.88,NNW,327,4.0,12.0,69,0.00,,,0.03,,2013-04-01 10:03:00,
2013-04-01 06:13:00,29.0,20.0,29.88,NNW,327,4.0,12.0,69,0.00,,,0.03,,2013-04-01 10:13:00,
2013-04-01 06:23:00,29.0,20.0,29.88,NNW,332,5.0,9.0,69,0.00,,,0.03,,2013-04-01 10:23:00,
2013-04-01 06:33:00,29.0,20.0,29.89,NNW,334,4.0,9.0,69,0.00,,,0.03,,2013-04-01 10:33:00,
2013-04-01 06:42:00,29.0,20.0,29.89,NNW,334,4.0,9.0,69,0.00,,,0.03,,2013-04-01 10:42:00,
2013-04-01 06:53:00,28.0,19.0,29.90,NNW,335,3.0,9.0,69,0.00,,,0.03,,2013-04-01 10:53:00,
2013-04-01 07:03:00,28.0,19.0,29.90,NNW,328,6.0,11.0,68,0.00,,,0.03,,2013-04-01 11:03:00,
2013-04-01 07:13:00,28.0,19.0,29.90,NNW,328,6.0,11.0,68,0.00,,,0.03,,2013-04-01 11:13:00,
2013-04-01 07:23:00,28.0,19.0,29.91,NNW,332,4.0,8.0,68,0.00,,,0.01,,2013-04-01 11:23:00,
2013-04-01 07:33:00,28.0,19.0,29.91,NNW,334,3.0,8.0,69,0.00,,,0.00,,2013-04-01 11:33:00,
2013-04-01 07:42:00,28.0,19.0,29.91,NNW,334,3.0,8.0,69,0.00,,,0.00,,2013-04-01 11:42:00,
2013-04-01 07:53:00,28.0,19.0,29.92,NNW,332,3.0,8.0,69,0.00,,,0.00,,2013-04-01 11:53:00,
2013-04-01 08:03:00,28.0,19.0,29.93,NNW,330,4.0,8.0,69,0.00,,,0.00,,2013-04-01 12:03:00,
2013-04-01 08:12:00,28.0,19.0,29.93,NNW,330,4.0,8.0,69,0.00,,,0.00,,2013-04-01 12:12:00,
2013-04-01 08:23:00,28.0,20.0,29.93,NW,318,3.0,6.0,70,0.00,,,0.00,,2013-04-01 12:23:00,
2013-04-01 08:32:00,28.0,20.0,29.94,NW,321,3.0,6.0,70,0.00,,,0.00,,2013-04-01 12:32:00,
2013-04-01 08:42:00,28.0,20.0,29.94,NW,321,3.0,6.0,70,0.00,,,0.00,,2013-04-01 12:42:00,
2013-04-01 08:53:00,29.0,20.0,29.95,NW,324,5.0,8.0,69,0.00,,,0.00,,2013-04-01 12:53:00,
2013-04-01 09:03:00,29.0,20.0,29.96,NW,323,4.0,8.0,69,0.00,,,0.00,,2013-04-01 13:03:00,
2013-04-01 09:12:00,29.0,20.0,29.96,NW,323,4.0,8.0,69,0.00,,,0.00,,2013-04-01 13:12:00,
2013-04-01 09:22:00,29.0,21.0,29.96,NNW,335,5.0,10.0,72,0.00,,,0.00,,2013-04-01 13:22:00,
2013-04-01 09:32:00,29.0,21.0,29.97,NNW,348,9.0,20.0,72,0.00,,,0.00,,2013-04-01 13:32:00,
2013-04-01 09:42:00,29.0,21.0,29.97,NNW,348,9.0,20.0,72,0.00,,,0.00,,2013-04-01 13:42:00,
2013-04-01 09:53:00,30.0,21.0,29.97,NNW,328,8.0,19.0,70,0.00,,,0.00,,2013-04-01 13:53:00,
2013-04-01 10:04:00,31.0,20.0,29.97,NW,321,9.0,16.0,64,0.00,,,0.00,,2013-04-01 14:04:00,
2013-04-01 10:12:00,31.0,20.0,29.97,NW,321,9.0,16.0,64,0.00,,,0.00,,2013-04-01 14:12:00,
2013-04-01 10:22:00,31.0,18.0,29.98,NW,321,12.0,22.0,58,0.00,,,0.00,,2013-04-01 14:22:00,
2013-04-01 10:33:00,31.0,17.0,29.98,NNW,329,11.0,21.0,56,0.00,,,0.00,,2013-04-01 14:33:00,
2013-04-01 10:42:00,31.0,17.0,29.98,NNW,329,11.0,21.0,56,0.00,,,0.00,,2013-04-01 14:42:00,
2013-04-01 10:53:00,31.0,17.0,29.98,NNW,342,11.0,18.0,56,0.00,,,0.00,,2013-04-01 14:53:00,
2013-04-01 11:03:00,31.0,17.0,29.99,NNW,340,10.0,16.0,55,0.00,,,0.00,,2013-04-01 15:03:00,
2013-04-01 11:13:00,31.0,17.0,29.99,NNW,340,10.0,16.0,55,0.00,,,0.00,,2013-04-01 15:13:00,
2013-04-01 11:23:00,32.0,17.0,30.00,NW,311,11.0,19.0,54,0.00,,,0.00,,2013-04-01 15:23:00,
2013-04-01 11:34:00,31.0,17.0,30.00,NW,309,12.0,20.0,56,0.00,,,0.00,,2013-04-01 15:34:00,
2013-04-01 11:43:00,31.0,17.0,30.00,NW,309,12.0,20.0,56,0.00,,,0.00,,2013-04-01 15:43:00,
2013-04-01 11:53:00,32.0,15.0,30.01,WNW,300,13.0,22.0,48,0.00,,,0.00,,2013-04-01 15:53:00,
2013-04-01 12:03:00,33.0,15.0,30.01,NW,305,12.0,24.0,48,0.00,,,0.00,,2013-04-01 16:03:00,
2013-04-01 12:13:00,33.0,15.0,30.01,NW,305,12.0,24.0,48,0.00,,,0.00,,2013-04-01 16:13:00,
2013-04-01 12:23:00,33.0,16.0,30.01,NW,305,10.0,17.0,50,0.00,,,0.00,,2013-04-01 16:23:00,
2013-04-01 12:33:00,32.0,17.0,30.01,NW,319,12.0,24.0,54,0.00,,,0.00,,2013-04-01 16:33:00,
2013-04-01 12:43:00,32.0,17.0,30.01,NW,319,12.0,24.0,54,0.00,,,0.00,,2013-04-01 16:43:00,
2013-04-01 12:53:00,33.0,15.0,30.01,NW,305,12.0,19.0,46,0.00,,,0.00,,2013-04-01 16:53:00,
2013-04-01 13:03:00,33.0,16.0,30.02,NW,310,9.0,17.0,50,0.00,,,0.00,,2013-04-01 17:03:00,
2013-04-01 13:13:00,33.0,16.0,30.02,NW,310,9.0,17.0,50,0.00,,,0.00,,2013-04-01 17:13:00,
2013-04-01 13:23:00,34.0,15.0,30.02,NW,307,11.0,19.0,45,0.00,,,0.00,,2013-04-01 17:23:00,
2013-04-01 13:32:00,34.0,15.0,30.02,NW,307,11.0,19.0,45,0.00,,,0.00,,2013-04-01 17:32:00,
2013-04-01 13:42:00,34.0,15.0,30.02,NW,307,11.0,19.0,45,0.00,,,0.00,,2013-04-01 17:42:00,
2013-04-01 13:53:00,34.0,14.0,30.02,NW,306,12.0,19.0,44,0.00,,,0.00,,2013-04-01 17:53:00,
2013-04-01 14:03:00,34.0,15.0,30.02,NW,304,13.0,22.0,45,0.00,,,0.00,,2013-04-01 18:03:00,
2013-04-01 14:12:00,34.0,15.0,30.02,NW,304,13.0,22.0,45,0.00,,,0.00,,2013-04-01 18:12:00,
2013-04-01 14:22:00,34.0,16.0,30.03,WNW,291,12.0,18.0,47,0.00,,,0.00,,2013-04-01 18:22:00,
2013-04-01 14:33:00,34.0,18.0,30.03,NW,304,13.0,20.0,51,0.00,,,0.00,,2013-04-01 18:33:00,
2013-04-01 14:43:00,34.0,18.0,30.03,NW,304,13.0,20.0,51,0.00,,,0.00,,2013-04-01 18:43:00,
2013-04-01 14:53:00,35.0,19.0,30.03,WNW,299,14.0,20.0,51,0.00,,,0.00,,2013-04-01 18:53:00,
2013-04-01 15:03:00,34.0,18.0,30.03,WNW,297,12.0,19.0,52,0.00,,,0.00,,2013-04-01 19:03:00,
2013-04-01 15:13:00,34.0,18.0,30.03,WNW,297,12.0,19.0,52,0.00,,,0.00,,2013-04-01 19:13:00,
2013-04-01 15:23:00,33.0,16.0,30.03,NW,308,14.0,21.0,49,0.00,,,0.00,,2013-04-01 19:23:00,
2013-04-01 15:32:00,32.0,15.0,30.03,WNW,296,13.0,20.0,50,0.00,,,0.00,,2013-04-01 19:32:00,
2013-04-01 15:42:00,32.0,15.0,30.03,WNW,296,13.0,20.0,50,0.00,,,0.00,,2013-04-01 19:42:00,
2013-04-01 15:53:00,32.0,15.0,30.04,WNW,299,13.0,21.0,50,0.00,,,0.00,,2013-04-01 19:53:00,
2013-04-01 16:02:00,32.0,16.0,30.04,NW,314,11.0,18.0,52,0.00,,,0.00,,2013-04-01 20:02:00,
2013-04-01 16:13:00,32.0,16.0,30.04,NW,314,11.0,18.0,52,0.00,,,0.00,,2013-04-01 20:13:00,
2013-04-01 16:23:00,32.0,16.0,30.04,NW,319,10.0,21.0,51,0.00,,,0.00,,2013-04-01 20:23:00,
2013-04-01 16:33:00,32.0,16.0,30.04,NW,315,11.0,19.0,51,0.00,,,0.00,,2013-04-01 20:33:00,
2013-04-01 16:43:00,32.0,16.0,30.04,NW,315,11.0,19.0,51,0.00,,,0.00,,2013-04-01 20:43:00,
2013-04-01 16:52:00,31.0,15.0,30.05,NW,316,12.0,23.0,52,0.00,,,0.00,,2013-04-01 20:52:00,
2013-04-01 17:02:00,32.0,15.0,30.05,WNW,295,14.0,25.0,48,0.00,,,0.00,,2013-04-01 21:02:00,
2013-04-01 17:12:00,32.0,15.0,30.05,WNW,295,14.0,25.0,48,0.00,,,0.00,,2013-04-01 21:12:00,
2013-04-01 17:23:00,32.0,15.0,30.05,NW,325,10.0,17.0,50,0.00,,,0.00,,2013-04-01 21:23:00,
2013-04-01 17:33:00,33.0,17.0,30.05,NW,316,9.0,17.0,51,0.00,,,0.00,,2013-04-01 21:33:00,
2013-04-01 17:43:00,33.0,17.0,30.05,NW,316,9.0,17.0,51,0.00,,,0.00,,2013-04-01 21:43:00,
2013-04-01 17:53:00,34.0,16.0,30.05,WNW,287,11.0,18.0,47,0.00,,,0.00,,2013-04-01 21:53:00,
2013-04-01 18:03:00,33.0,15.0,30.05,WNW,296,13.0,20.0,47,0.00,,,0.00,,2013-04-01 22:03:00,
2013-04-01 18:13:00,33.0,15.0,30.05,WNW,296,13.0,20.0,47,0.00,,,0.00,,2013-04-01 22:13:00,
2013-04-01 18:23:00,32.0,15.0,30.06,NW,322,9.0,16.0,50,0.00,,,0.00,,2013-04-01 22:23:00,
2013-04-01 18:33:00,32.0,15.0,30.06,NW,309,9.0,17.0,49,0.00,,,0.00,,2013-04-01 22:33:00,
2013-04-01 18:43:00,32.0,15.0,30.06,NW,309,9.0,17.0,49,0.00,,,0.00,,2013-04-01 22:43:00,
2013-04-01 18:52:00,32.0,15.0,30.06,NW,311,9.0,18.0,49,0.00,,,0.00,,2013-04-01 22:52:00,
2013-04-01 19:02:00,32.0,15.0,30.06,NW,325,10.0,15.0,50,0.00,,,0.00,,2013-04-01 23:02:00,
2013-04-01 19:12:00,32.0,15.0,30.06,NW,325,10.0,15.0,50,0.00,,,0.00,,2013-04-01 23:12:00,
2013-04-01 19:23:00,32.0,16.0,30.07,WNW,300,12.0,18.0,51,0.00,,,0.00,,2013-04-01 23:23:00,
2013-04-01 19:32:00,31.0,16.0,30.07,WNW,293,11.0,16.0,53,0.00,,,0.00,,2013-04-01 23:32:00,
2013-04-01 19:43:00,31.0,16.0,30.07,WNW,293,11.0,16.0,53,0.00,,,0.00,,2013-04-01 23:43:00,
2013-04-01 19:53:00,30.0,15.0,30.07,WNW,294,9.0,15.0,54,0.00,,,0.00,,2013-04-01 23:53:00,
2013-04-01 20:03:00,30.0,15.0,30.07,WNW,300,10.0,17.0,54,0.00,,,0.00,,2013-04-02 00:03:00,
2013-04-01 20:12:00,30.0,15.0,30.07,WNW,300,10.0,17.0,54,0.00,,,0.00,,2013-04-02 00:12:00,
2013-04-01 20:22:00,30.0,16.0,30.07,NW,308,8.0,14.0,55,0.00,,,0.00,,2013-04-02 00:22:00,
2013-04-01 20:33:00,29.0,16.0,30.07,WNW,294,7.0,11.0,57,0.00,,,0.00,,2013-04-02 00:33:00,
2013-04-01 20:42:00,29.0,16.0,30.07,WNW,294,7.0,11.0,57,0.00,,,0.00,,2013-04-02 00:42:00,
2013-04-01 20:52:00,29.0,16.0,30.08,NW,307,3.0,7.0,58,0.00,,,0.00,,2013-04-02 00:52:00,
2013-04-01 21:02:00,29.0,16.0,30.08,NW,316,2.0,6.0,58,0.00,,,0.00,,2013-04-02 01:02:00,
2013-04-01 21:12:00,29.0,16.0,30.08,NW,316,2.0,6.0,58,0.00,,,0.00,,2013-04-02 01:12:00,
2013-04-01 21:22:00,28.0,16.0,30.07,NW,316,2.0,4.0,60,0.00,,,0.00,,2013-04-02 01:22:00,
2013-04-01 21:32:00,28.0,16.0,30.08,NW,317,3.0,5.0,61,0.00,,,0.00,,2013-04-02 01:32:00,
2013-04-01 21:42:00,28.0,16.0,30.08,NW,317,3.0,5.0,61,0.00,,,0.00,,2013-04-02 01:42:00,
2013-04-01 21:53:00,28.0,16.0,30.08,NW,309,3.0,5.0,61,0.00,,,0.00,,2013-04-02 01:53:00,
2013-04-01 22:12:00,28.0,17.0,30.08,NW,308,3.0,6.0,62,0.00,,,0.00,,2013-04-02 02:12:00,
2013-04-01 22:22:00,28.0,17.0,30.08,WNW,299,1.0,2.0,64,0.00,,,0.00,,2013-04-02 02:22:00,
2013-04-01 22:32:00,27.0,17.0,30.09,WNW,293,0.0,1.0,65,0.00,,,0.00,,2013-04-02 02:32:00,
2013-04-01 22:42:00,27.0,17.0,30.09,WNW,293,0.0,1.0,65,0.00,,,0.00,,2013-04-02 02:42:00,
2013-04-01 22:53:00,26.0,17.0,30.09,North,0,0.0,0.0,67,0.00,,,0.00,,2013-04-02 02:53:00,
2013-04-01 23:02:00,25.0,16.0,30.09,North,0,0.0,0.0,68,0.00,,,0.00,,2013-04-02 03:02:00,
2013-04-01 23:12:00,25.0,16.0,30.09,North,0,0.0,0.0,68,0.00,,,0.00,,2013-04-02 03:12:00,
2013-04-01 23:22:00,23.0,15.0,30.09,North,0,0.0,0.0,71,0.00,,,0.00,,2013-04-02 03:22:00,
2013-04-01 23:33:00,24.0,18.0,30.09,North,0,0.0,0.0,76,0.00,,,0.00,,2013-04-02 03:33:00,
2013-04-01 23:43:00,24.0,18.0,30.09,North,0,0.0,0.0,76,0.00,,,0.00,,2013-04-02 03:43:00,
2013-04-01 23:53:00,25.0,19.0,30.09,North,0,0.0,0.0,76,0.00,,,0.00,,2013-04-02 03:53:00,